Tracking 35274 objects as of 10-Sep-2026
HD Live streaming from Space Station
objects crossing your sky now

COSMOS 1945 DEB


COSMOS 1945 DEB is no longer on orbit


NORAD ID: 19203
Int'l Code: 1988-042G
Launch date: May 19, 1988
Source: Commonwealth of Independent States (former USSR) (CIS)
Launch site: TYURATAM MISSILE AND SPACE COMPLEX (TTMTR)
Decay date: 1988-06-02

Note: This is SATELLITE DEBRIS
Your satellite tracking list
Your tracking list is empty




NASA's NSSDC Master Catalog

Two Line Element Set (TLE):
1 19203U 88042  G 88153.45775262  .03971473 +16100-4 +10483-2 0  9994
2 19203 070.3601 021.0742 0017759 146.6053 213.6130 16.27747347002101
Source of the keplerian elements: AFSPC